ATLAS CENTAUR R/B, 43341

Orbit data source: Space-Track

ATLAS CENTAUR R/B, 43341 is space debris in GEO originally from a launch on Sat, 14 Apr 2018 UTC launched from the Air Force Eastern Test Range (AFETR). Debris objects in space refer to the collection of defunct objects orbiting the Earth. Examples of debris include non-operational satellites, rocket bodies, and fragments generated from explosions, collisions, or faulty payload assembly.

Loading next visibility...
Identifier
43341, 2018-036C
Orbit
GEO
Country
Flag of USUS
Related business
Manufacturer
LMSS Denver
Mission
Spacecraft
Bus & Motor
CENTAUR SEC, RL10C-1
Mass
~2,020 kg wet, 2,020 kg dry
Launch date (UTC)
2018-04-14 (8 years ago)
Launch vehicle
Unknown
Launch site
Air Force Eastern Test Range (AFETR)
Object type
Payload
Rocket body
Debris
Shape & HBR
Cyl + 1 Nozzle, 5.8 m
Radar Cross Section
32.260 m², Medium (>0.1 m² and < 1m²)

Expand to show TLE details & history
Last TLE update: 2 days ago

TLE from 2 days ago
0 ATLAS CENTAUR R/B
1 43341U 18036C   26170.96482383 -.00000092  00000-0  00000+0 0  9993
2 43341   6.7122  64.2197 0444107 207.2192 150.2493  1.08308426 26810
Epoch: 2026-06-19T23:09Z
TLE epoch observation values (Epoch: 2026-06-19T23:09:20.778Z)
Latitude
0.00001°
Longitude
168.59416°
Altitude
35,243.002 km
Speed
3.033 km/s
True Right ascension
04h 16m 28s
True Declination
0° 00' 00"
Sunlit
Object was in daylight at epoch
Visualization orbit readout
Latitude
Unknown
Longitude
Unknown
Altitude
Unknown
Speed
Unknown
Apparent Right ascension
Unknown
Apparent Declination
Unknown
Sunlit
N/A
Visualization observer readout
Local Sidereal Time
21:24:36
Azimuth
Unknown
Elevation
Unknown
Doppler factor
Unknown
Orbital elements
Apogee altitude
35,454.024 km
Perigee altitude
31,896.429 km
Semi-major axis
40,053.363 km
Eccentricity
0.04441
Inclination
6.7122°
RAAN
64.2197°
Arg. of periapsis
207.2192°
True anomaly
152.65763°
Mean anomaly
150.2493°
Eccentric anomaly
151.46482°
Mean motion
0.27076 °/min
Orbital period
1,329.59 mins
BSTAR
0
Loading maneuver chart data...
Computing Atmospheric mass density...
Loading historical data...
Loading historical data...
Loading historical data...
Loading historical data...
Loading historical data...
Loading historical data...
Loading historical data...
Other satellites on launch #36 in the year 2018 (2018-04-14 UTC)

Documentation

Showing up to 5 results
|